contact:dominique.lefevre@mio.osupytheas.fr, maurice.libes@osupytheas.fr, didier.mallarino@osupytheas.fr
Project:EMSO http://www.emso-fr.org/EMSO-France
Depth: 2436.0 m
Title:EMSO Ligure Ouest : Data MII capteur MICROCAT
DateTime_Computer,Latitude,Longitude,Temperature,Conductivity,Pressure,DateTime_Instrument
DateTime_Computer,Latitude,Longitude,degC,S m-1,dbar,DateTime_Instrument
2023-01-27T00:00:38Z,42.805,6.029,13.3021,4.60075,2470.553,2023-1-27T02:07:05Z
2023-01-27T00:03:42Z,42.805,6.029,13.3019,4.60074,2470.544,2023-1-27T02:10:08Z
2023-01-27T00:06:45Z,42.805,6.029,13.3014,4.60075,2470.553,2023-1-27T02:13:11Z
2023-01-27T00:09:48Z,42.805,6.029,13.3024,4.60074,2470.567,2023-1-27T02:16:15Z
2023-01-27T00:12:51Z,42.805,6.029,13.3020,4.60075,2470.53,2023-1-27T02:19:18Z
2023-01-27T00:15:54Z,42.805,6.029,13.3020,4.60073,2470.507,2023-1-27T02:22:21Z
2023-01-27T00:18:57Z,42.805,6.029,13.3015,4.60074,2470.567,2023-1-27T02:25:24Z
2023-01-27T00:22:00Z,42.805,6.029,13.3021,4.60074,2470.53,2023-1-27T02:28:27Z
2023-01-27T00:25:03Z,42.805,6.029,13.3021,4.60074,2470.553,2023-1-27T02:31:30Z
2023-01-27T00:28:06Z,42.805,6.029,13.3021,4.60074,2470.53,2023-1-27T02:34:33Z
2023-01-27T00:31:09Z,42.805,6.029,13.3024,4.60073,2470.544,2023-1-27T02:37:36Z
2023-01-27T00:34:12Z,42.805,6.029,13.3021,4.60074,2470.577,2023-1-27T02:40:39Z
2023-01-27T00:37:15Z,42.805,6.029,13.3023,4.60074,2470.591,2023-1-27T02:43:42Z
2023-01-27T00:40:19Z,42.805,6.029,13.3019,4.60076,2470.544,2023-1-27T02:46:45Z
2023-01-27T00:43:22Z,42.805,6.029,13.3021,4.60075,2470.53,2023-1-27T02:49:49Z
2023-01-27T00:46:25Z,42.805,6.029,13.3024,4.60074,2470.507,2023-1-27T02:52:52Z
2023-01-27T00:49:28Z,42.805,6.029,13.3020,4.60073,2470.544,2023-1-27T02:55:55Z
2023-01-27T00:52:31Z,42.805,6.029,13.3022,4.60073,2470.553,2023-1-27T02:58:58Z
2023-01-27T00:55:34Z,42.805,6.029,13.3021,4.60074,2470.553,2023-1-27T03:02:01Z
2023-01-27T00:58:37Z,42.805,6.029,13.3019,4.60074,2470.544,2023-1-27T03:05:04Z
2023-01-27T01:01:40Z,42.805,6.029,13.3021,4.60074,2470.53,2023-1-27T03:08:07Z
2023-01-27T01:04:43Z,42.805,6.029,13.3021,4.60073,2470.53,2023-1-27T03:11:10Z
2023-01-27T01:07:46Z,42.805,6.029,13.3022,4.60075,2470.507,2023-1-27T03:14:13Z
2023-01-27T01:10:49Z,42.805,6.029,13.3021,4.60074,2470.483,2023-1-27T03:17:16Z
2023-01-27T01:13:53Z,42.805,6.029,13.3018,4.60074,2470.544,2023-1-27T03:20:19Z
2023-01-27T01:16:56Z,42.805,6.029,13.3021,4.60074,2470.53,2023-1-27T03:23:22Z
2023-01-27T01:19:59Z,42.805,6.029,13.3022,4.60073,2470.544,2023-1-27T03:26:26Z
2023-01-27T01:23:02Z,42.805,6.029,13.3020,4.60075,2470.53,2023-1-27T03:29:29Z
2023-01-27T01:26:05Z,42.805,6.029,13.3023,4.60074,2470.507,2023-1-27T03:32:32Z
2023-01-27T01:29:08Z,42.805,6.029,13.3023,4.60077,2470.53,2023-1-27T03:35:35Z
2023-01-27T01:32:11Z,42.805,6.029,13.3021,4.60077,2470.483,2023-1-27T03:38:38Z
2023-01-27T01:35:14Z,42.805,6.029,13.3022,4.60076,2470.52,2023-1-27T03:41:41Z
2023-01-27T01:38:17Z,42.805,6.029,13.3022,4.60076,2470.52,2023-1-27T03:44:44Z
2023-01-27T01:41:20Z,42.805,6.029,13.3023,4.60074,2470.544,2023-1-27T03:47:47Z
2023-01-27T01:44:23Z,42.805,6.029,13.3024,4.60074,2470.52,2023-1-27T03:50:50Z
2023-01-27T01:47:26Z,42.805,6.029,13.3022,4.60075,2470.507,2023-1-27T03:53:53Z
2023-01-27T01:50:30Z,42.805,6.029,13.3020,4.60074,2470.483,2023-1-27T03:56:56Z
2023-01-27T01:53:33Z,42.805,6.029,13.3024,4.60075,2470.507,2023-1-27T04:00:00Z
2023-01-27T01:56:36Z,42.805,6.029,13.3019,4.60073,2470.497,2023-1-27T04:03:03Z
2023-01-27T01:59:39Z,42.805,6.029,13.3023,4.60074,2470.483,2023-1-27T04:06:06Z
2023-01-27T02:02:42Z,42.805,6.029,13.3019,4.60074,2470.497,2023-1-27T04:09:09Z
2023-01-27T02:05:45Z,42.805,6.029,13.3019,4.60076,2470.497,2023-1-27T04:12:12Z
2023-01-27T02:08:48Z,42.805,6.029,13.3022,4.60074,2470.507,2023-1-27T04:15:15Z
2023-01-27T02:11:51Z,42.805,6.029,13.3018,4.60074,2470.483,2023-1-27T04:18:18Z
2023-01-27T02:14:54Z,42.805,6.029,13.3019,4.60074,2470.497,2023-1-27T04:21:21Z
2023-01-27T02:17:57Z,42.805,6.029,13.3022,4.60074,2470.507,2023-1-27T04:24:24Z
2023-01-27T02:21:00Z,42.805,6.029,13.3021,4.60074,2470.497,2023-1-27T04:27:27Z
2023-01-27T02:24:03Z,42.805,6.029,13.3024,4.60073,2470.52,2023-1-27T04:30:30Z
2023-01-27T02:27:07Z,42.805,6.029,13.3020,4.60074,2470.507,2023-1-27T04:33:33Z
2023-01-27T02:30:10Z,42.805,6.029,13.3023,4.60075,2470.46,2023-1-27T04:36:37Z
2023-01-27T02:33:13Z,42.805,6.029,13.3022,4.60073,2470.483,2023-1-27T04:39:40Z
2023-01-27T02:36:16Z,42.805,6.029,13.3024,4.60073,2470.474,2023-1-27T04:42:43Z
2023-01-27T02:39:19Z,42.805,6.029,13.3021,4.60074,2470.46,2023-1-27T04:45:46Z
2023-01-27T02:42:22Z,42.805,6.029,13.3015,4.60072,2470.497,2023-1-27T04:48:49Z
2023-01-27T02:45:25Z,42.805,6.029,13.3023,4.60073,2470.46,2023-1-27T04:51:52Z
2023-01-27T02:48:28Z,42.805,6.029,13.3019,4.60072,2470.483,2023-1-27T04:54:55Z
2023-01-27T02:51:31Z,42.805,6.029,13.3021,4.60074,2470.52,2023-1-27T04:57:58Z
2023-01-27T02:54:34Z,42.805,6.029,13.3015,4.60072,2470.437,2023-1-27T05:01:01Z
2023-01-27T02:57:37Z,42.805,6.029,13.3020,4.60073,2470.446,2023-1-27T05:04:04Z
2023-01-27T03:00:41Z,42.805,6.029,13.3020,4.60073,2470.497,2023-1-27T05:07:07Z
2023-01-27T03:03:44Z,42.805,6.029,13.3019,4.60074,2470.46,2023-1-27T05:10:10Z
2023-01-27T03:06:47Z,42.805,6.029,13.3022,4.60074,2470.497,2023-1-27T05:13:14Z
2023-01-27T03:09:50Z,42.805,6.029,13.3022,4.60072,2470.483,2023-1-27T05:16:17Z
2023-01-27T03:12:53Z,42.805,6.029,13.3020,4.60074,2470.46,2023-1-27T05:19:20Z
2023-01-27T03:15:56Z,42.805,6.029,13.3020,4.60075,2470.46,2023-1-27T05:22:23Z
2023-01-27T03:18:59Z,42.805,6.029,13.3019,4.60073,2470.483,2023-1-27T05:25:26Z
2023-01-27T03:22:02Z,42.805,6.029,13.3019,4.60072,2470.483,2023-1-27T05:28:29Z
2023-01-27T03:25:05Z,42.805,6.029,13.3019,4.60074,2470.46,2023-1-27T05:31:32Z
2023-01-27T03:28:08Z,42.805,6.029,13.3019,4.60072,2470.474,2023-1-27T05:34:35Z
2023-01-27T03:31:11Z,42.805,6.029,13.3017,4.60071,2470.46,2023-1-27T05:37:38Z
2023-01-27T03:34:14Z,42.805,6.029,13.3022,4.60070,2470.46,2023-1-27T05:40:41Z
2023-01-27T03:37:18Z,42.805,6.029,13.3017,4.60072,2470.474,2023-1-27T05:43:44Z
2023-01-27T03:40:21Z,42.805,6.029,13.3019,4.60072,2470.45,2023-1-27T05:46:48Z
2023-01-27T03:43:24Z,42.805,6.029,13.3019,4.60072,2470.474,2023-1-27T05:49:51Z
2023-01-27T03:46:27Z,42.805,6.029,13.3018,4.60072,2470.46,2023-1-27T05:52:54Z
2023-01-27T03:49:30Z,42.805,6.029,13.3017,4.60070,2470.46,2023-1-27T05:55:57Z
2023-01-27T03:52:33Z,42.805,6.029,13.3018,4.60072,2470.46,2023-1-27T05:59:00Z
2023-01-27T03:55:36Z,42.805,6.029,13.3024,4.60071,2470.46,2023-1-27T06:02:03Z
2023-01-27T03:58:39Z,42.805,6.029,13.3017,4.60072,2470.46,2023-1-27T06:05:06Z
2023-01-27T04:01:42Z,42.805,6.029,13.3021,4.60072,2470.413,2023-1-27T06:08:09Z
2023-01-27T04:04:45Z,42.805,6.029,13.3019,4.60070,2470.437,2023-1-27T06:11:12Z
2023-01-27T04:07:48Z,42.805,6.029,13.3021,4.60072,2470.413,2023-1-27T06:14:15Z
2023-01-27T04:10:52Z,42.805,6.029,13.3021,4.60072,2470.474,2023-1-27T06:17:18Z
2023-01-27T04:13:55Z,42.805,6.029,13.3021,4.60070,2470.46,2023-1-27T06:20:22Z
2023-01-27T04:16:58Z,42.805,6.029,13.3020,4.60073,2470.483,2023-1-27T06:23:25Z
2023-01-27T04:20:01Z,42.805,6.029,13.3018,4.60075,2470.46,2023-1-27T06:26:28Z
2023-01-27T04:23:04Z,42.805,6.029,13.3022,4.60072,2470.437,2023-1-27T06:29:31Z
2023-01-27T04:26:07Z,42.805,6.029,13.3021,4.60073,2470.45,2023-1-27T06:32:34Z
2023-01-27T04:29:10Z,42.805,6.029,13.3018,4.60072,2470.45,2023-1-27T06:35:37Z
2023-01-27T04:32:13Z,42.805,6.029,13.3018,4.60074,2470.404,2023-1-27T06:38:40Z
2023-01-27T04:35:16Z,42.805,6.029,13.3021,4.60073,2470.437,2023-1-27T06:41:43Z
2023-01-27T04:38:19Z,42.805,6.029,13.3024,4.60073,2470.437,2023-1-27T06:44:46Z
2023-01-27T04:41:22Z,42.805,6.029,13.3024,4.60073,2470.46,2023-1-27T06:47:49Z
2023-01-27T04:44:25Z,42.805,6.029,13.3025,4.60074,2470.45,2023-1-27T06:50:52Z
2023-01-27T04:47:29Z,42.805,6.029,13.3023,4.60074,2470.437,2023-1-27T06:53:55Z
2023-01-27T04:50:32Z,42.805,6.029,13.3023,4.60074,2470.427,2023-1-27T06:56:59Z
2023-01-27T04:53:35Z,42.805,6.029,13.3024,4.60074,2470.46,2023-1-27T07:00:02Z
2023-01-27T04:56:38Z,42.805,6.029,13.3024,4.60074,2470.427,2023-1-27T07:03:05Z
2023-01-27T04:59:41Z,42.805,6.029,13.3019,4.60074,2470.437,2023-1-27T07:06:08Z
2023-01-27T05:02:44Z,42.805,6.029,13.3021,4.60075,2470.437,2023-1-27T07:09:11Z
2023-01-27T05:05:47Z,42.805,6.029,13.3024,4.60075,2470.437,2023-1-27T07:12:14Z
2023-01-27T05:08:50Z,42.805,6.029,13.3027,4.60074,2470.427,2023-1-27T07:15:17Z
2023-01-27T05:11:53Z,42.805,6.029,13.3026,4.60074,2470.446,2023-1-27T07:18:20Z
2023-01-27T05:14:56Z,42.805,6.029,13.3023,4.60074,2470.437,2023-1-27T07:21:23Z
2023-01-27T05:17:59Z,42.805,6.029,13.3021,4.60075,2470.437,2023-1-27T07:24:26Z
2023-01-27T05:21:02Z,42.805,6.029,13.3023,4.60073,2470.437,2023-1-27T07:27:29Z
2023-01-27T05:24:06Z,42.805,6.029,13.3024,4.60074,2470.413,2023-1-27T07:30:33Z
2023-01-27T05:27:09Z,42.805,6.029,13.3024,4.60077,2470.474,2023-1-27T07:33:36Z
2023-01-27T05:30:12Z,42.805,6.029,13.3023,4.60073,2470.45,2023-1-27T07:36:39Z
2023-01-27T05:33:15Z,42.805,6.029,13.3028,4.60074,2470.437,2023-1-27T07:39:42Z
2023-01-27T05:36:18Z,42.805,6.029,13.3024,4.60075,2470.437,2023-1-27T07:42:45Z
2023-01-27T05:39:21Z,42.805,6.029,13.3023,4.60076,2470.437,2023-1-27T07:45:48Z
2023-01-27T05:42:24Z,42.805,6.029,13.3023,4.60076,2470.437,2023-1-27T07:48:51Z
2023-01-27T05:45:27Z,42.805,6.029,13.3021,4.60073,2470.39,2023-1-27T07:51:54Z
2023-01-27T05:48:30Z,42.805,6.029,13.3023,4.60075,2470.427,2023-1-27T07:54:57Z
2023-01-27T05:51:33Z,42.805,6.029,13.3025,4.60075,2470.427,2023-1-27T07:58:00Z
2023-01-27T05:54:36Z,42.805,6.029,13.3026,4.60076,2470.46,2023-1-27T08:01:03Z
2023-01-27T05:57:39Z,42.805,6.029,13.3023,4.60076,2470.437,2023-1-27T08:04:06Z
2023-01-27T06:00:43Z,42.805,6.029,13.3019,4.60075,2470.413,2023-1-27T08:07:10Z
2023-01-27T06:03:46Z,42.805,6.029,13.3021,4.60076,2470.427,2023-1-27T08:10:13Z
2023-01-27T06:06:49Z,42.805,6.029,13.3024,4.60074,2470.437,2023-1-27T08:13:16Z
2023-01-27T06:09:52Z,42.805,6.029,13.3023,4.60074,2470.437,2023-1-27T08:16:19Z
2023-01-27T06:12:55Z,42.805,6.029,13.3026,4.60076,2470.474,2023-1-27T08:19:22Z
2023-01-27T06:15:58Z,42.805,6.029,13.3025,4.60077,2470.427,2023-1-27T08:22:25Z
2023-01-27T06:19:01Z,42.805,6.029,13.3021,4.60075,2470.46,2023-1-27T08:25:28Z
2023-01-27T06:22:04Z,42.805,6.029,13.3024,4.60075,2470.45,2023-1-27T08:28:31Z
2023-01-27T06:25:07Z,42.805,6.029,13.3025,4.60074,2470.437,2023-1-27T08:31:34Z
2023-01-27T06:28:10Z,42.805,6.029,13.3024,4.60074,2470.437,2023-1-27T08:34:37Z
2023-01-27T06:31:13Z,42.805,6.029,13.3024,4.60078,2470.437,2023-1-27T08:37:41Z
2023-01-27T06:34:17Z,42.805,6.029,13.3019,4.60077,2470.437,2023-1-27T08:40:44Z
2023-01-27T06:37:20Z,42.805,6.029,13.3024,4.60074,2470.46,2023-1-27T08:43:47Z
2023-01-27T06:40:23Z,42.805,6.029,13.3023,4.60074,2470.437,2023-1-27T08:46:50Z
2023-01-27T06:43:26Z,42.805,6.029,13.3028,4.60075,2470.437,2023-1-27T08:49:53Z
2023-01-27T06:46:29Z,42.805,6.029,13.3021,4.60076,2470.46,2023-1-27T08:52:56Z
2023-01-27T06:49:32Z,42.805,6.029,13.3025,4.60079,2470.437,2023-1-27T08:55:59Z
2023-01-27T06:52:35Z,42.805,6.029,13.3025,4.60077,2470.46,2023-1-27T08:59:02Z
2023-01-27T06:55:38Z,42.805,6.029,13.3023,4.60076,2470.483,2023-1-27T09:02:05Z
2023-01-27T06:58:41Z,42.805,6.029,13.3028,4.60079,2470.474,2023-1-27T09:05:08Z
2023-01-27T07:01:44Z,42.805,6.029,13.3023,4.60075,2470.46,2023-1-27T09:08:11Z
2023-01-27T07:04:47Z,42.805,6.029,13.3029,4.60077,2470.483,2023-1-27T09:11:14Z
2023-01-27T07:07:50Z,42.805,6.029,13.3026,4.60077,2470.474,2023-1-27T09:14:18Z
2023-01-27T07:10:54Z,42.805,6.029,13.3026,4.60083,2470.437,2023-1-27T09:17:21Z
2023-01-27T07:13:57Z,42.805,6.029,13.3024,4.60076,2470.46,2023-1-27T09:20:24Z
2023-01-27T07:17:00Z,42.805,6.029,13.3029,4.60079,2470.46,2023-1-27T09:23:27Z
2023-01-27T07:20:03Z,42.805,6.029,13.3021,4.60079,2470.474,2023-1-27T09:26:30Z
2023-01-27T07:23:06Z,42.805,6.029,13.3024,4.60077,2470.483,2023-1-27T09:29:33Z
2023-01-27T07:26:09Z,42.805,6.029,13.3023,4.60076,2470.46,2023-1-27T09:32:36Z
2023-01-27T07:29:12Z,42.805,6.029,13.3026,4.60078,2470.483,2023-1-27T09:35:39Z
2023-01-27T07:32:15Z,42.805,6.029,13.3024,4.60081,2470.483,2023-1-27T09:38:42Z
2023-01-27T07:35:18Z,42.805,6.029,13.3023,4.60081,2470.46,2023-1-27T09:41:45Z
2023-01-27T07:38:21Z,42.805,6.029,13.3021,4.60077,2470.483,2023-1-27T09:44:48Z
2023-01-27T07:41:24Z,42.805,6.029,13.3025,4.60081,2470.507,2023-1-27T09:47:52Z
2023-01-27T07:44:28Z,42.805,6.029,13.3028,4.60080,2470.52,2023-1-27T09:50:55Z
2023-01-27T07:47:31Z,42.805,6.029,13.3019,4.60079,2470.53,2023-1-27T09:53:58Z
2023-01-27T07:50:34Z,42.805,6.029,13.3026,4.60076,2470.53,2023-1-27T09:57:01Z
2023-01-27T07:53:37Z,42.805,6.029,13.3025,4.60077,2470.483,2023-1-27T10:00:04Z
2023-01-27T07:56:40Z,42.805,6.029,13.3023,4.60075,2470.474,2023-1-27T10:03:07Z
2023-01-27T07:59:43Z,42.805,6.029,13.3023,4.60076,2470.507,2023-1-27T10:06:10Z
2023-01-27T08:02:46Z,42.805,6.029,13.3026,4.60079,2470.53,2023-1-27T10:09:13Z
2023-01-27T08:05:49Z,42.805,6.029,13.3022,4.60075,2470.507,2023-1-27T10:12:16Z
2023-01-27T08:08:52Z,42.805,6.029,13.3023,4.60075,2470.53,2023-1-27T10:15:19Z
2023-01-27T08:11:55Z,42.805,6.029,13.3024,4.60077,2470.53,2023-1-27T10:18:22Z
2023-01-27T08:14:58Z,42.805,6.029,13.3024,4.60079,2470.507,2023-1-27T10:21:26Z
2023-01-27T08:18:02Z,42.805,6.029,13.3022,4.60079,2470.507,2023-1-27T10:24:29Z
2023-01-27T08:21:05Z,42.805,6.029,13.3024,4.60079,2470.53,2023-1-27T10:27:32Z
2023-01-27T08:24:08Z,42.805,6.029,13.3025,4.60076,2470.553,2023-1-27T10:30:35Z
2023-01-27T08:27:11Z,42.805,6.029,13.3026,4.60080,2470.553,2023-1-27T10:33:38Z
2023-01-27T08:30:14Z,42.805,6.029,13.3022,4.60077,2470.53,2023-1-27T10:36:41Z
2023-01-27T08:33:17Z,42.805,6.029,13.3027,4.60080,2470.567,2023-1-27T10:39:44Z
2023-01-27T08:36:20Z,42.805,6.029,13.3024,4.60077,2470.483,2023-1-27T10:42:47Z
2023-01-27T08:39:23Z,42.805,6.029,13.3024,4.60075,2470.567,2023-1-27T10:45:50Z
2023-01-27T08:42:26Z,42.805,6.029,13.3024,4.60079,2470.567,2023-1-27T10:48:53Z
2023-01-27T08:45:29Z,42.805,6.029,13.3026,4.60074,2470.553,2023-1-27T10:51:56Z
2023-01-27T08:48:32Z,42.805,6.029,13.3021,4.60076,2470.567,2023-1-27T10:55:00Z
2023-01-27T08:51:36Z,42.805,6.029,13.3021,4.60072,2470.553,2023-1-27T10:58:03Z
2023-01-27T08:54:39Z,42.805,6.029,13.3023,4.60072,2470.577,2023-1-27T11:01:06Z
2023-01-27T08:57:42Z,42.805,6.029,13.3018,4.60072,2470.591,2023-1-27T11:04:09Z
2023-01-27T09:00:45Z,42.805,6.029,13.3021,4.60072,2470.577,2023-1-27T11:07:12Z
2023-01-27T09:03:48Z,42.805,6.029,13.3022,4.60070,2470.577,2023-1-27T11:10:15Z
2023-01-27T09:06:51Z,42.805,6.029,13.3015,4.60072,2470.591,2023-1-27T11:13:18Z
2023-01-27T09:09:54Z,42.805,6.029,13.3021,4.60071,2470.6,2023-1-27T11:16:21Z
2023-01-27T09:12:57Z,42.805,6.029,13.3022,4.60072,2470.6,2023-1-27T11:19:24Z
2023-01-27T09:16:00Z,42.805,6.029,13.3021,4.60070,2470.577,2023-1-27T11:22:27Z
2023-01-27T09:19:03Z,42.805,6.029,13.3017,4.60072,2470.591,2023-1-27T11:25:30Z
2023-01-27T09:22:06Z,42.805,6.029,13.3016,4.60069,2470.6,2023-1-27T11:28:34Z
2023-01-27T09:25:10Z,42.805,6.029,13.3015,4.60069,2470.591,2023-1-27T11:31:37Z
2023-01-27T09:28:13Z,42.805,6.029,13.3017,4.60069,2470.614,2023-1-27T11:34:40Z
2023-01-27T09:31:16Z,42.805,6.029,13.3019,4.60069,2470.586,2023-1-27T11:37:43Z
2023-01-27T09:34:19Z,42.805,6.029,13.3019,4.60070,2470.577,2023-1-27T11:40:46Z
2023-01-27T09:37:22Z,42.805,6.029,13.3017,4.60070,2470.624,2023-1-27T11:43:49Z
2023-01-27T09:40:25Z,42.805,6.029,13.3021,4.60069,2470.624,2023-1-27T11:46:52Z
2023-01-27T09:43:28Z,42.805,6.029,13.3018,4.60072,2470.624,2023-1-27T11:49:55Z
2023-01-27T09:46:31Z,42.805,6.029,13.3017,4.60069,2470.661,2023-1-27T11:52:58Z
2023-01-27T09:49:34Z,42.805,6.029,13.3019,4.60070,2470.61,2023-1-27T11:56:01Z
2023-01-27T09:52:37Z,42.805,6.029,13.3020,4.60070,2470.661,2023-1-27T11:59:04Z
2023-01-27T09:55:40Z,42.805,6.029,13.3017,4.60069,2470.6,2023-1-27T12:02:08Z
2023-01-27T09:58:43Z,42.805,6.029,13.3016,4.60071,2470.661,2023-1-27T12:05:11Z
2023-01-27T10:01:47Z,42.805,6.029,13.3016,4.60078,2470.637,2023-1-27T12:08:14Z
2023-01-27T10:04:50Z,42.805,6.029,13.3019,4.60068,2470.624,2023-1-27T12:11:17Z
2023-01-27T10:07:53Z,42.805,6.029,13.3023,4.60072,2470.624,2023-1-27T12:14:20Z
2023-01-27T10:10:56Z,42.805,6.029,13.3020,4.60069,2470.624,2023-1-27T12:17:23Z
2023-01-27T10:13:59Z,42.805,6.029,13.3019,4.60070,2470.624,2023-1-27T12:20:26Z
2023-01-27T10:17:02Z,42.805,6.029,13.3018,4.60068,2470.646,2023-1-27T12:23:29Z
2023-01-27T10:20:05Z,42.805,6.029,13.3018,4.60070,2470.67,2023-1-27T12:26:32Z
2023-01-27T10:23:08Z,42.805,6.029,13.3017,4.60077,2470.661,2023-1-27T12:29:35Z
2023-01-27T10:26:11Z,42.805,6.029,13.3021,4.60070,2470.661,2023-1-27T12:32:38Z
2023-01-27T10:29:14Z,42.805,6.029,13.3021,4.60076,2470.684,2023-1-27T12:35:42Z
2023-01-27T10:32:18Z,42.805,6.029,13.3015,4.60080,2470.67,2023-1-27T12:38:45Z
2023-01-27T10:35:21Z,42.805,6.029,13.3015,4.60070,2470.624,2023-1-27T12:41:48Z
2023-01-27T10:38:24Z,42.805,6.029,13.3020,4.60069,2470.661,2023-1-27T12:44:51Z
2023-01-27T10:41:27Z,42.805,6.029,13.3019,4.60069,2470.646,2023-1-27T12:47:54Z
2023-01-27T10:44:30Z,42.805,6.029,13.3019,4.60069,2470.633,2023-1-27T12:50:57Z
2023-01-27T10:47:33Z,42.805,6.029,13.3016,4.60068,2470.67,2023-1-27T12:54:00Z
2023-01-27T10:50:36Z,42.805,6.029,13.3016,4.60068,2470.646,2023-1-27T12:57:03Z
2023-01-27T10:53:39Z,42.805,6.029,13.3016,4.60070,2470.67,2023-1-27T13:00:06Z
2023-01-27T10:56:42Z,42.805,6.029,13.3021,4.60069,2470.67,2023-1-27T13:03:09Z
2023-01-27T10:59:45Z,42.805,6.029,13.3015,4.60069,2470.684,2023-1-27T13:06:12Z
2023-01-27T11:02:48Z,42.805,6.029,13.3020,4.60069,2470.646,2023-1-27T13:09:16Z
2023-01-27T11:05:51Z,42.805,6.029,13.3017,4.60072,2470.67,2023-1-27T13:12:19Z
2023-01-27T11:08:55Z,42.805,6.029,13.3018,4.60069,2470.684,2023-1-27T13:15:22Z
2023-01-27T11:11:58Z,42.805,6.029,13.3015,4.60069,2470.67,2023-1-27T13:18:25Z
2023-01-27T11:15:01Z,42.805,6.029,13.3021,4.60068,2470.684,2023-1-27T13:21:28Z
2023-01-27T11:18:04Z,42.805,6.029,13.3016,4.60068,2470.646,2023-1-27T13:24:31Z
2023-01-27T11:21:07Z,42.805,6.029,13.3014,4.60068,2470.624,2023-1-27T13:27:34Z
2023-01-27T11:24:10Z,42.805,6.029,13.3015,4.60071,2470.646,2023-1-27T13:30:37Z
2023-01-27T11:27:13Z,42.805,6.029,13.3015,4.60070,2470.646,2023-1-27T13:33:40Z
2023-01-27T11:30:16Z,42.805,6.029,13.3018,4.60073,2470.646,2023-1-27T13:36:43Z
2023-01-27T11:33:19Z,42.805,6.029,13.3021,4.60069,2470.661,2023-1-27T13:39:46Z
2023-01-27T11:36:22Z,42.805,6.029,13.3024,4.60069,2470.646,2023-1-27T13:42:50Z
2023-01-27T11:39:25Z,42.805,6.029,13.3024,4.60072,2470.646,2023-1-27T13:45:53Z
2023-01-27T11:42:29Z,42.805,6.029,13.3022,4.60073,2470.661,2023-1-27T13:48:56Z
2023-01-27T11:45:32Z,42.805,6.029,13.3018,4.60069,2470.67,2023-1-27T13:51:59Z
2023-01-27T11:48:35Z,42.805,6.029,13.3019,4.60069,2470.624,2023-1-27T13:55:02Z
2023-01-27T11:51:38Z,42.805,6.029,13.3020,4.60069,2470.637,2023-1-27T13:58:05Z
2023-01-27T11:54:41Z,42.805,6.029,13.3023,4.60072,2470.661,2023-1-27T14:01:08Z
2023-01-27T11:57:44Z,42.805,6.029,13.3017,4.60069,2470.646,2023-1-27T14:04:11Z
2023-01-27T12:00:47Z,42.805,6.029,13.3016,4.60067,2470.67,2023-1-27T14:07:14Z
2023-01-27T12:03:50Z,42.805,6.029,13.3020,4.60069,2470.67,2023-1-27T14:10:17Z
2023-01-27T12:06:53Z,42.805,6.029,13.3020,4.60073,2470.624,2023-1-27T14:13:20Z
2023-01-27T12:09:56Z,42.805,6.029,13.3017,4.60074,2470.661,2023-1-27T14:16:24Z
2023-01-27T12:12:59Z,42.805,6.029,13.3018,4.60074,2470.646,2023-1-27T14:19:27Z
2023-01-27T12:16:03Z,42.805,6.029,13.3022,4.60075,2470.67,2023-1-27T14:22:30Z
2023-01-27T12:19:06Z,42.805,6.029,13.3019,4.60070,2470.661,2023-1-27T14:25:33Z
2023-01-27T12:22:09Z,42.805,6.029,13.3019,4.60073,2470.67,2023-1-27T14:28:36Z
2023-01-27T12:25:12Z,42.805,6.029,13.3019,4.60076,2470.646,2023-1-27T14:31:39Z
2023-01-27T12:28:15Z,42.805,6.029,13.3026,4.60068,2470.661,2023-1-27T14:34:42Z
2023-01-27T12:31:18Z,42.805,6.029,13.3022,4.60069,2470.684,2023-1-27T14:37:45Z
2023-01-27T12:34:21Z,42.805,6.029,13.3025,4.60069,2470.637,2023-1-27T14:40:48Z
2023-01-27T12:37:24Z,42.805,6.029,13.3019,4.60070,2470.646,2023-1-27T14:43:51Z
2023-01-27T12:40:27Z,42.805,6.029,13.3015,4.60072,2470.646,2023-1-27T14:46:55Z
2023-01-27T12:43:30Z,42.805,6.029,13.3017,4.60072,2470.661,2023-1-27T14:49:58Z
2023-01-27T12:46:33Z,42.805,6.029,13.3017,4.60073,2470.624,2023-1-27T14:53:01Z
2023-01-27T12:49:37Z,42.805,6.029,13.3020,4.60072,2470.646,2023-1-27T14:56:04Z
2023-01-27T12:52:40Z,42.805,6.029,13.3018,4.60074,2470.624,2023-1-27T14:59:07Z
2023-01-27T12:55:43Z,42.805,6.029,13.3021,4.60069,2470.637,2023-1-27T15:02:10Z
2023-01-27T12:58:46Z,42.805,6.029,13.3019,4.60076,2470.624,2023-1-27T15:05:13Z
2023-01-27T13:01:49Z,42.805,6.029,13.3023,4.60072,2470.637,2023-1-27T15:08:16Z
2023-01-27T13:04:52Z,42.805,6.029,13.3017,4.60072,2470.646,2023-1-27T15:11:19Z
2023-01-27T13:07:55Z,42.805,6.029,13.3023,4.60070,2470.624,2023-1-27T15:14:22Z
2023-01-27T13:10:58Z,42.805,6.029,13.3015,4.60077,2470.624,2023-1-27T15:17:25Z
2023-01-27T13:14:01Z,42.805,6.029,13.3019,4.60072,2470.624,2023-1-27T15:20:29Z
2023-01-27T13:17:04Z,42.805,6.029,13.3021,4.60069,2470.646,2023-1-27T15:23:32Z
2023-01-27T13:20:07Z,42.805,6.029,13.3023,4.60075,2470.624,2023-1-27T15:26:35Z
2023-01-27T13:23:11Z,42.805,6.029,13.3014,4.60074,2470.637,2023-1-27T15:29:38Z
2023-01-27T13:26:14Z,42.805,6.029,13.3018,4.60073,2470.614,2023-1-27T15:32:41Z
2023-01-27T13:29:17Z,42.805,6.029,13.3018,4.60069,2470.624,2023-1-27T15:35:44Z
2023-01-27T13:32:20Z,42.805,6.029,13.3017,4.60069,2470.624,2023-1-27T15:38:47Z
2023-01-27T13:35:23Z,42.805,6.029,13.3024,4.60069,2470.577,2023-1-27T15:41:50Z
2023-01-27T13:38:26Z,42.805,6.029,13.3019,4.60070,2470.614,2023-1-27T15:44:53Z
2023-01-27T13:41:29Z,42.805,6.029,13.3018,4.60074,2470.624,2023-1-27T15:47:56Z
2023-01-27T13:44:32Z,42.805,6.029,13.3019,4.60072,2470.624,2023-1-27T15:50:59Z
2023-01-27T13:47:35Z,42.805,6.029,13.3017,4.60071,2470.637,2023-1-27T15:54:03Z
2023-01-27T13:50:38Z,42.805,6.029,13.3017,4.60069,2470.614,2023-1-27T15:57:06Z
2023-01-27T13:53:41Z,42.805,6.029,13.3015,4.60070,2470.6,2023-1-27T16:00:09Z
2023-01-27T13:56:45Z,42.805,6.029,13.3018,4.60072,2470.6,2023-1-27T16:03:12Z
2023-01-27T13:59:48Z,42.805,6.029,13.3017,4.60070,2470.614,2023-1-27T16:06:15Z
2023-01-27T14:02:51Z,42.805,6.029,13.3020,4.60070,2470.591,2023-1-27T16:09:18Z
2023-01-27T14:05:54Z,42.805,6.029,13.3019,4.60074,2470.577,2023-1-27T16:12:21Z
2023-01-27T14:08:57Z,42.805,6.029,13.3016,4.60070,2470.614,2023-1-27T16:15:24Z
2023-01-27T14:12:00Z,42.805,6.029,13.3021,4.60071,2470.577,2023-1-27T16:18:27Z
2023-01-27T14:15:03Z,42.805,6.029,13.3017,4.60072,2470.6,2023-1-27T16:21:30Z
2023-01-27T14:18:06Z,42.805,6.029,13.3019,4.60072,2470.577,2023-1-27T16:24:33Z
2023-01-27T14:21:09Z,42.805,6.029,13.3017,4.60070,2470.6,2023-1-27T16:27:37Z
2023-01-27T14:24:12Z,42.805,6.029,13.3019,4.60070,2470.614,2023-1-27T16:30:40Z
2023-01-27T14:27:15Z,42.805,6.029,13.3021,4.60071,2470.577,2023-1-27T16:33:43Z
2023-01-27T14:30:19Z,42.805,6.029,13.3017,4.60072,2470.553,2023-1-27T16:36:46Z
2023-01-27T14:33:22Z,42.805,6.029,13.3023,4.60073,2470.577,2023-1-27T16:39:49Z
2023-01-27T14:36:25Z,42.805,6.029,13.3016,4.60069,2470.6,2023-1-27T16:42:52Z
2023-01-27T14:39:28Z,42.805,6.029,13.3019,4.60069,2470.591,2023-1-27T16:45:55Z
2023-01-27T14:42:31Z,42.805,6.029,13.3017,4.60069,2470.577,2023-1-27T16:48:58Z
2023-01-27T14:45:34Z,42.805,6.029,13.3019,4.60079,2470.577,2023-1-27T16:52:01Z
2023-01-27T14:48:37Z,42.805,6.029,13.3019,4.60072,2470.567,2023-1-27T16:55:04Z
2023-01-27T14:51:40Z,42.805,6.029,13.3015,4.60069,2470.577,2023-1-27T16:58:07Z
2023-01-27T14:54:43Z,42.805,6.029,13.3019,4.60072,2470.553,2023-1-27T17:01:11Z
2023-01-27T14:57:46Z,42.805,6.029,13.3021,4.60072,2470.577,2023-1-27T17:04:14Z
2023-01-27T15:00:49Z,42.805,6.029,13.3015,4.60069,2470.591,2023-1-27T17:07:17Z
2023-01-27T15:03:53Z,42.805,6.029,13.3018,4.60070,2470.553,2023-1-27T17:10:20Z
2023-01-27T15:06:56Z,42.805,6.029,13.3017,4.60070,2470.567,2023-1-27T17:13:23Z
2023-01-27T15:09:59Z,42.805,6.029,13.3019,4.60072,2470.567,2023-1-27T17:16:26Z
2023-01-27T15:13:02Z,42.805,6.029,13.3015,4.60071,2470.567,2023-1-27T17:19:29Z